Simultaneous Nadir Overpasses (SNOs) Predictions

Prediction of SNOs between GOES-17 and METOP-B Satellite Orbit:

Table of predicted SNOs for the next 14.0 days since TLE Epoch: 2/25/2023
Index Date Time (GOES-17) GOES-17 Lat,Lon METOP-B Lat,Lon Distance(km) Time Diff (sec)
1 02/25/2023 16:40:48 -0.00,-104.71 0.70,-107.86 359.01 80
2 02/26/2023 16:22:48 -0.00,-104.71 -0.40,-102.86 210.20 80
3 02/28/2023 04:41:49 0.01,-104.68 -0.63,-107.46 316.43 80
4 03/01/2023 04:19:39 0.01,-104.69 0.48,-102.46 252.73 10
5 03/02/2023 16:37:21 -0.02,-104.71 0.50,-107.03 264.22 80
6 03/03/2023 16:19:22 -0.01,-104.72 -0.61,-102.04 305.12 80
7 03/05/2023 04:38:22 0.02,-104.69 -0.41,-106.63 221.01 80
8 03/06/2023 04:16:41 0.01,-104.70 0.71,-101.64 348.50 18
9 03/07/2023 16:33:54 -0.01,-104.73 0.33,-106.20 167.92 80
10 03/08/2023 16:15:55 -0.01,-104.73 -0.79,-101.20 401.80 80
11 03/10/2023 04:34:55 0.01,-104.71 -0.21,-105.80 123.87 80
